,,PA_Meas_PMT16A,,PR_Meas_QMR101_102,,RH_Meas_QMH101,,SR_Meas_QMS101,,TA_Meas_QMH101,,GenWind,,GenWind,
time,status,PA,status,PR,status,RH,status,SR,status,TA,status,DirAvg,status,SpdAvg,
2012-08-27, 00:00:04,VALID,918.108,VALID,0,VALID,96.4438,VALID,0,VALID,19.3157,VALID,85,VALID,0,
2012-08-27, 00:01:04,VALID,918.112,VALID,0,VALID,96.4819,VALID,0,VALID,19.2962,VALID,85,VALID,0,
2012-08-27, 00:02:04,VALID,918.155,VALID,0,VALID,96.5582,VALID,0,VALID,19.3352,VALID,85,VALID,0,
2012-08-27, 00:03:04,VALID,918.161,VALID,0,VALID,96.6039,VALID,0,VALID,19.3352,VALID,85,VALID,0,
2012-08-27, 00:04:04,VALID,918.195,VALID,0,VALID,96.7564,VALID,0,VALID,19.3937,VALID,85,VALID,0,
2012-08-27, 00:05:04,VALID,918.199,VALID,0,VALID,96.8021,VALID,0,VALID,19.4523,VALID,85,VALID,0,
2012-08-27, 00:06:04,VALID,918.241,VALID,0,VALID,96.7716,VALID,0,VALID,19.4718,VALID,85,VALID,0,
2012-08-27, 00:07:04,VALID,918.199,VALID,0,VALID,96.7564,VALID,0,VALID,19.4703,VALID,85,VALID,0,
2012-08-27, 00:08:04,VALID,918.172,VALID,0,VALID,96.7716,VALID,0,VALID,19.4703,VALID,85,VALID,0,
2012-08-27, 00:09:04,VALID,918.18,VALID,0,VALID,96.7411,VALID,0,VALID,19.4718,VALID,85,VALID,0,
2012-08-27, 00:10:04,VALID,918.184,VALID,0,VALID,96.7183,VALID,0,VALID,19.4132,VALID,85,VALID,0,
2012-08-27, 00:11:04,VALID,918.167,VALID,0,VALID,96.7945,VALID,0,VALID,19.4327,VALID,85,VALID,0,
2012-08-27, 00:12:04,VALID,918.187,VALID,0,VALID,96.8021,VALID,0,VALID,19.4132,VALID,85,VALID,0,
2012-08-27, 00:13:04,VALID,918.168,VALID,0,VALID,96.8631,VALID,0,VALID,19.4132,VALID,85,VALID,0,
2012-08-27, 00:14:04,VALID,918.178,VALID,0,VALID,96.8936,VALID,0,VALID,19.4327,VALID,85,VALID,0,
2012-08-27, 00:15:04,VALID,918.193,VALID,0,VALID,96.9165,VALID,0,VALID,19.4313,VALID,85,VALID,0,
2012-08-27, 00:16:04,VALID,918.175,VALID,0,VALID,96.9317,VALID,0,VALID,19.4313,VALID,85,VALID,0,
2012-08-27, 00:17:04,VALID,918.144,VALID,0,VALID,96.947,VALID,0,VALID,19.4327,VALID,85,VALID,0,
2012-08-27, 00:18:04,VALID,918.118,VALID,0,VALID,96.9698,VALID,0,VALID,19.4327,VALID,85,VALID,0,
2012-08-27, 00:19:04,VALID,918.135,VALID,0,VALID,96.9698,VALID,0,VALID,19.4327,VALID,85,VALID,0,
2012-08-27, 00:20:04,VALID,918.108,VALID,0,VALID,96.9775,VALID,0,VALID,19.4523,VALID,85,VALID,0,
2012-08-27, 00:21:04,VALID,918.085,VALID,0,VALID,96.9851,VALID,0,VALID,19.4327,VALID,98,VALID,0,
2012-08-27, 00:22:04,VALID,918.142,VALID,0,VALID,97.0156,VALID,0,VALID,19.4523,VALID,110,VALID,0,
2012-08-27, 00:23:04,VALID,918.124,VALID,0,VALID,97.0156,VALID,0,VALID,19.4327,VALID,143,VALID,0,
2012-08-27, 00:24:04,VALID,918.109,VALID,0,VALID,97.0156,VALID,0,VALID,19.3923,VALID,143,VALID,0,
2012-08-27, 00:25:04,VALID,918.086,VALID,0,VALID,97.0385,VALID,0,VALID,19.3923,VALID,143,VALID,0,
2012-08-27, 00:26:04,VALID,918.089,VALID,0,VALID,97.0156,VALID,0,VALID,19.3937,VALID,143,VALID,0,
2012-08-27, 00:27:04,VALID,918.048,VALID,0,VALID,97.0385,VALID,0,VALID,19.3923,VALID,143,VALID,0,
2012-08-27, 00:28:04,VALID,918.05,VALID,0,VALID,97.0537,VALID,0,VALID,19.4118,VALID,143,VALID,0,
2012-08-27, 00:29:04,VALID,918.008,VALID,0,VALID,97.069,VALID,0,VALID,19.4132,VALID,143,VALID,0,
2012-08-27, 00:30:04,VALID,917.969,VALID,0,VALID,97.0537,VALID,0,VALID,19.3937,VALID,143,VALID,0,
2012-08-27, 00:31:04,VALID,917.969,VALID,0,VALID,97.0461,VALID,0,VALID,19.3937,VALID,143,VALID,0,
2012-08-27, 00:32:04,VALID,917.925,VALID,0,VALID,97.1071,VALID,0,VALID,19.4327,VALID,143,VALID,0,
2012-08-27, 00:33:04,VALID,917.913,VALID,0,VALID,97.0918,VALID,0,VALID,19.4132,VALID,143,VALID,0,
2012-08-27, 00:34:04,VALID,917.927,VALID,0,VALID,97.0842,VALID,0,VALID,19.4132,VALID,143,VALID,0,
2012-08-27, 00:35:04,VALID,917.867,VALID,0,VALID,97.1071,VALID,0,VALID,19.4132,VALID,143,VALID,0,
2012-08-27, 00:36:04,VALID,917.872,VALID,0,VALID,97.1147,VALID,0,VALID,19.4327,VALID,143,VALID,0,
2012-08-27, 00:37:04,VALID,917.864,VALID,0,VALID,97.0918,VALID,0,VALID,19.4327,VALID,143,VALID,0,
2012-08-27, 00:38:04,VALID,917.827,VALID,0,VALID,97.1071,VALID,0,VALID,19.4327,VALID,143,VALID,0,
2012-08-27, 00:39:04,VALID,917.842,VALID,0,VALID,97.1147,VALID,0,VALID,19.4913,VALID,143,VALID,0,
2012-08-27, 00:40:04,VALID,917.775,VALID,0,VALID,97.1452,VALID,0,VALID,19.5108,VALID,143,VALID,0,
2012-08-27, 00:41:04,VALID,917.74,VALID,0,VALID,97.1528,VALID,0,VALID,19.5693,VALID,143,VALID,0,
2012-08-27, 00:42:04,VALID,917.732,VALID,0,VALID,97.1452,VALID,0,VALID,19.5888,VALID,143,VALID,0,
2012-08-27, 00:43:04,VALID,917.722,VALID,0,VALID,97.1604,VALID,0,VALID,19.6083,VALID,143,VALID,0,
2012-08-27, 00:44:04,VALID,917.713,VALID,0,VALID,97.1528,VALID,0,VALID,19.6473,VALID,143,VALID,0,
2012-08-27, 00:45:04,VALID,917.659,VALID,0,VALID,97.1528,VALID,0,VALID,19.6473,VALID,143,VALID,0,
2012-08-27, 00:46:04,VALID,917.648,VALID,0,VALID,97.1528,VALID,0,VALID,19.6473,VALID,143,VALID,0,
2012-08-27, 00:47:04,VALID,917.632,VALID,0,VALID,97.1528,VALID,0,VALID,19.6473,VALID,143,VALID,0,
2012-08-27, 00:48:04,VALID,917.624,VALID,0,VALID,97.1223,VALID,0,VALID,19.6473,VALID,143,VALID,0,
2012-08-27, 00:49:04,VALID,917.595,VALID,0,VALID,97.1071,VALID,0,VALID,19.6278,VALID,143,VALID,0,
2012-08-27, 00:50:04,VALID,917.545,VALID,0,VALID,97.0766,VALID,0,VALID,19.6473,VALID,143,VALID,0,
2012-08-27, 00:51:04,VALID,917.518,VALID,0,VALID,97.0766,VALID,0,VALID,19.6473,VALID,143,VALID,0,
2012-08-27, 00:52:04,VALID,917.465,VALID,0,VALID,97.0842,VALID,0,VALID,19.6473,VALID,143,VALID,0,
2012-08-27, 00:53:04,VALID,917.448,VALID,0,VALID,97.0385,VALID,0,VALID,19.6083,VALID,143,VALID,0,
2012-08-27, 00:54:04,VALID,917.443,VALID,0,VALID,97.008,VALID,0,VALID,19.5888,VALID,143,VALID,0,
2012-08-27, 00:55:04,VALID,917.415,VALID,0,VALID,97.0156,VALID,0,VALID,19.6083,VALID,143,VALID,0,
2012-08-27, 00:56:04,VALID,917.382,VALID,0,VALID,97.0003,VALID,0,VALID,19.6278,VALID,143,VALID,0,
2012-08-27, 00:57:04,VALID,917.392,VALID,0,VALID,97.0003,VALID,0,VALID,19.6083,VALID,143,VALID,0,
2012-08-27, 00:58:04,VALID,917.387,VALID,0,VALID,96.9927,VALID,0,VALID,19.6083,VALID,143,VALID,0,
2012-08-27, 00:59:04,VALID,917.373,VALID,0,VALID,96.9851,VALID,0,VALID,19.6473,VALID,143,VALID,0,
2012-08-27, 01:00:04,VALID,917.369,VALID,0,VALID,96.9851,VALID,0,VALID,19.6473,VALID,143,VALID,0,
2012-08-27, 01:01:04,VALID,917.375,VALID,0,VALID,97.0156,VALID,0,VALID,19.6668,VALID,143,VALID,0,
2012-08-27, 01:02:04,VALID,917.372,VALID,0,VALID,97.008,VALID,0,VALID,19.7058,VALID,143,VALID,0,
2012-08-27, 01:03:04,VALID,917.389,VALID,0,VALID,96.9927,VALID,0,VALID,19.6863,VALID,143,VALID,0,
2012-08-27, 01:04:04,VALID,917.403,VALID,0,VALID,96.9851,VALID,0,VALID,19.7058,VALID,143,VALID,0,
2012-08-27, 01:05:04,VALID,917.407,VALID,0,VALID,96.9698,VALID,0,VALID,19.7253,VALID,143,VALID,0,
2012-08-27, 01:06:04,VALID,917.426,VALID,0,VALID,96.9622,VALID,0,VALID,19.7448,VALID,143,VALID,0,
2012-08-27, 01:07:04,VALID,917.392,VALID,0,VALID,96.9394,VALID,0,VALID,19.7643,VALID,94,VALID,0,
2012-08-27, 01:08:04,VALID,917.438,VALID,0,VALID,96.9089,VALID,0,VALID,19.8033,VALID,93,VALID,0,
2012-08-27, 01:09:04,VALID,917.4,VALID,0,VALID,96.8707,VALID,0,VALID,19.8033,VALID,93,VALID,0,
2012-08-27, 01:10:04,VALID,917.41,VALID,0,VALID,96.8174,VALID,0,VALID,19.8018,VALID,93,VALID,0,
2012-08-27, 01:11:04,VALID,917.428,VALID,0,VALID,96.764,VALID,0,VALID,19.8423,VALID,93,VALID,0,
2012-08-27, 01:12:04,VALID,917.425,VALID,0,VALID,96.7107,VALID,0,VALID,19.8408,VALID,93,VALID,0,
2012-08-27, 01:13:04,VALID,917.417,VALID,0,VALID,96.6344,VALID,0,VALID,19.8618,VALID,93,VALID,0,
2012-08-27, 01:14:04,VALID,917.407,VALID,0,VALID,96.6725,VALID,0,VALID,19.8618,VALID,93,VALID,0,
2012-08-27, 01:15:04,VALID,917.428,VALID,0,VALID,96.6649,VALID,0,VALID,19.8618,VALID,93,VALID,0,
2012-08-27, 01:16:04,VALID,917.415,VALID,0,VALID,96.6573,VALID,0,VALID,19.8813,VALID,93,VALID,0,
2012-08-27, 01:17:04,VALID,917.395,VALID,0,VALID,96.6192,VALID,0,VALID,19.8603,VALID,93,VALID,0,
2012-08-27, 01:18:04,VALID,917.402,VALID,0,VALID,96.5506,VALID,0,VALID,19.8423,VALID,93,VALID,0,
2012-08-27, 01:19:04,VALID,917.409,VALID,0,VALID,96.5582,VALID,0,VALID,19.8423,VALID,93,VALID,0,
2012-08-27, 01:20:04,VALID,917.405,VALID,0,VALID,96.5658,VALID,0,VALID,19.8228,VALID,93,VALID,0,
2012-08-27, 01:21:04,VALID,917.401,VALID,0,VALID,96.5506,VALID,0,VALID,19.8228,VALID,93,VALID,0,
2012-08-27, 01:22:04,VALID,917.44,VALID,0,VALID,96.5277,VALID,0,VALID,19.8228,VALID,93,VALID,0,
2012-08-27, 01:23:04,VALID,917.467,VALID,0,VALID,96.5506,VALID,0,VALID,19.8228,VALID,93,VALID,0,
2012-08-27, 01:24:04,VALID,917.426,VALID,0,VALID,96.5506,VALID,0,VALID,19.8033,VALID,93,VALID,0,
2012-08-27, 01:25:04,VALID,917.483,VALID,0,VALID,96.5506,VALID,0,VALID,19.7838,VALID,93,VALID,0,
2012-08-27, 01:26:04,VALID,917.479,VALID,0,VALID,96.5353,VALID,0,VALID,19.7838,VALID,93,VALID,0,
2012-08-27, 01:27:04,VALID,917.493,VALID,0,VALID,96.5582,VALID,0,VALID,19.7838,VALID,93,VALID,0,
2012-08-27, 01:28:04,VALID,917.502,VALID,0,VALID,96.5429,VALID,0,VALID,19.7823,VALID,93,VALID,0,
2012-08-27, 01:29:04,VALID,917.492,VALID,0,VALID,96.5277,VALID,0,VALID,19.8033,VALID,93,VALID,0,
2012-08-27, 01:30:04,VALID,917.481,VALID,0,VALID,96.5048,VALID,0,VALID,19.7838,VALID,93,VALID,0,
2012-08-27, 01:31:04,VALID,917.434,VALID,0,VALID,96.5124,VALID,0,VALID,19.7838,VALID,93,VALID,0,
2012-08-27, 01:32:04,VALID,917.415,VALID,0,VALID,96.5277,VALID,0,VALID,19.8033,VALID,93,VALID,0,
2012-08-27, 01:33:04,VALID,917.389,VALID,0,VALID,96.5201,VALID,0,VALID,19.8228,VALID,93,VALID,0,
2012-08-27, 01:34:04,VALID,917.373,VALID,0,VALID,96.5048,VALID,0,VALID,19.7823,VALID,159,VALID,0,
2012-08-27, 01:35:04,VALID,917.353,VALID,0,VALID,96.5201,VALID,0,VALID,19.8033,VALID,159,VALID,0,
2012-08-27, 01:36:04,VALID,917.328,VALID,0,VALID,96.4972,VALID,0,VALID,19.8228,VALID,159,VALID,0,
2012-08-27, 01:37:04,VALID,917.332,VALID,0,VALID,96.4743,VALID,0,VALID,19.8228,VALID,159,VALID,0,
2012-08-27, 01:38:04,VALID,917.293,VALID,0,VALID,96.4896,VALID,0,VALID,19.8033,VALID,159,VALID,0,
2012-08-27, 01:39:04,VALID,917.3,VALID,0,VALID,96.4743,VALID,0,VALID,19.8033,VALID,159,VALID,0,
2012-08-27, 01:40:04,VALID,917.313,VALID,0,VALID,96.4819,VALID,0,VALID,19.8228,VALID,159,VALID,0,
2012-08-27, 01:41:04,VALID,917.282,VALID,0,VALID,96.4743,VALID,0,VALID,19.7823,VALID,159,VALID,0,
2012-08-27, 01:42:04,VALID,917.256,VALID,0,VALID,96.4438,VALID,0,VALID,19.7838,VALID,159,VALID,0,
2012-08-27, 01:43:04,VALID,917.273,VALID,0,VALID,96.4286,VALID,0,VALID,19.7643,VALID,159,VALID,0,
2012-08-27, 01:44:04,VALID,917.242,VALID,0,VALID,96.4515,VALID,0,VALID,19.7838,VALID,159,VALID,0,
2012-08-27, 01:45:04,VALID,917.226,VALID,0,VALID,96.4896,VALID,0,VALID,19.7838,VALID,159,VALID,0,
2012-08-27, 01:46:04,VALID,917.229,VALID,0,VALID,96.4438,VALID,0,VALID,19.7838,VALID,159,VALID,0,
2012-08-27, 01:47:04,VALID,917.189,VALID,0,VALID,96.4743,VALID,0,VALID,19.7628,VALID,159,VALID,0,
2012-08-27, 01:48:04,VALID,917.196,VALID,0,VALID,96.4286,VALID,0,VALID,19.7643,VALID,159,VALID,0,
2012-08-27, 01:49:04,VALID,917.159,VALID,0,VALID,96.4133,VALID,0,VALID,19.7643,VALID,159,VALID,0,
2012-08-27, 01:50:04,VALID,917.159,VALID,0,VALID,96.3219,VALID,0,VALID,19.7448,VALID,159,VALID,0,
2012-08-27, 01:51:04,VALID,917.185,VALID,0,VALID,96.2685,VALID,0,VALID,19.7043,VALID,159,VALID,0,
2012-08-27, 01:52:04,VALID,917.159,VALID,0,VALID,96.2685,VALID,0,VALID,19.6863,VALID,159,VALID,0,
2012-08-27, 01:53:04,VALID,917.155,VALID,0,VALID,96.2685,VALID,0,VALID,19.6668,VALID,159,VALID,0,
2012-08-27, 01:54:04,VALID,917.125,VALID,0,VALID,96.3066,VALID,0,VALID,19.6263,VALID,159,VALID,0,
2012-08-27, 01:55:04,VALID,917.132,VALID,0,VALID,96.3142,VALID,0,VALID,19.6083,VALID,159,VALID,0,
2012-08-27, 01:56:04,VALID,917.089,VALID,0,VALID,96.3752,VALID,0,VALID,19.6083,VALID,159,VALID,0,
2012-08-27, 01:57:04,VALID,917.087,VALID,0,VALID,96.4133,VALID,0,VALID,19.5693,VALID,159,VALID,0,
2012-08-27, 01:58:04,VALID,917.077,VALID,0,VALID,96.4362,VALID,0,VALID,19.5498,VALID,159,VALID,0,
2012-08-27, 01:59:04,VALID,917.092,VALID,0,VALID,96.4438,VALID,0,VALID,19.5498,VALID,159,VALID,0,
2012-08-27, 02:00:04,VALID,917.066,VALID,0,VALID,96.4743,VALID,0,VALID,19.5303,VALID,159,VALID,0,
2012-08-27, 02:01:04,VALID,917.059,VALID,0,VALID,96.4896,VALID,0,VALID,19.5108,VALID,159,VALID,0,
2012-08-27, 02:02:04,VALID,917.03,VALID,0,VALID,96.5277,VALID,0,VALID,19.4913,VALID,159,VALID,0,
2012-08-27, 02:03:04,VALID,917.004,VALID,0,VALID,96.5811,VALID,0,VALID,19.4913,VALID,159,VALID,0,
2012-08-27, 02:04:04,VALID,916.963,VALID,0,VALID,96.6268,VALID,0,VALID,19.5108,VALID,159,VALID,0,
2012-08-27, 02:05:04,VALID,916.923,VALID,0,VALID,96.6725,VALID,0,VALID,19.5303,VALID,159,VALID,0,
2012-08-27, 02:06:04,VALID,916.907,VALID,0,VALID,96.6725,VALID,0,VALID,19.5303,VALID,159,VALID,0,
2012-08-27, 02:07:04,VALID,916.882,VALID,0,VALID,96.6649,VALID,0,VALID,19.5093,VALID,159,VALID,0,
2012-08-27, 02:08:04,VALID,916.89,VALID,0,VALID,96.703,VALID,0,VALID,19.5108,VALID,159,VALID,0,
2012-08-27, 02:09:04,VALID,916.899,VALID,0,VALID,96.6878,VALID,0,VALID,19.5108,VALID,159,VALID,0,
2012-08-27, 02:10:04,VALID,916.886,VALID,0,VALID,96.7183,VALID,0,VALID,19.5108,VALID,159,VALID,0,
2012-08-27, 02:11:04,VALID,916.885,VALID,0,VALID,96.7564,VALID,0,VALID,19.5303,VALID,159,VALID,0,
2012-08-27, 02:12:04,VALID,916.884,VALID,0,VALID,96.7335,VALID,0,VALID,19.5303,VALID,159,VALID,0,
2012-08-27, 02:13:04,VALID,916.87,VALID,0,VALID,96.7488,VALID,0,VALID,19.4898,VALID,159,VALID,0,
2012-08-27, 02:14:04,VALID,916.857,VALID,0,VALID,96.7945,VALID,0,VALID,19.5303,VALID,159,VALID,0,
2012-08-27, 02:15:04,VALID,916.84,VALID,0,VALID,96.7945,VALID,0,VALID,19.5108,VALID,159,VALID,0,
2012-08-27, 02:16:04,VALID,916.835,VALID,0,VALID,96.825,VALID,0,VALID,19.5108,VALID,159,VALID,0,
2012-08-27, 02:17:04,VALID,916.848,VALID,0,VALID,96.8098,VALID,0,VALID,19.4898,VALID,159,VALID,0,
2012-08-27, 02:18:04,VALID,916.836,VALID,0,VALID,96.8098,VALID,0,VALID,19.4913,VALID,159,VALID,0,
2012-08-27, 02:19:04,VALID,916.857,VALID,0,VALID,96.7945,VALID,0,VALID,19.4718,VALID,159,VALID,0,
2012-08-27, 02:20:04,VALID,916.846,VALID,0,VALID,96.8403,VALID,0,VALID,19.4718,VALID,159,VALID,0,
2012-08-27, 02:21:04,VALID,916.856,VALID,0,VALID,96.886,VALID,0,VALID,19.4718,VALID,143,VALID,0,
2012-08-27, 02:22:04,VALID,916.884,VALID,0,VALID,96.8784,VALID,0,VALID,19.4718,VALID,143,VALID,0,
2012-08-27, 02:23:04,VALID,916.89,VALID,0,VALID,96.8555,VALID,0,VALID,19.4523,VALID,142,VALID,0,
2012-08-27, 02:24:04,VALID,916.896,VALID,0,VALID,96.886,VALID,0,VALID,19.4718,VALID,142,VALID,0,
2012-08-27, 02:25:04,VALID,916.852,VALID,0,VALID,96.9089,VALID,0,VALID,19.4703,VALID,142,VALID,0,
2012-08-27, 02:26:04,VALID,916.875,VALID,0,VALID,96.8936,VALID,0,VALID,19.4718,VALID,142,VALID,0,
2012-08-27, 02:27:04,VALID,916.862,VALID,0,VALID,96.8936,VALID,0,VALID,19.4523,VALID,142,VALID,0,
2012-08-27, 02:28:04,VALID,916.853,VALID,0,VALID,96.8707,VALID,0,VALID,19.4523,VALID,142,VALID,0,
2012-08-27, 02:29:04,VALID,916.834,VALID,0,VALID,96.8555,VALID,0,VALID,19.4327,VALID,142,VALID,0,
2012-08-27, 02:30:04,VALID,916.853,VALID,0,VALID,96.825,VALID,0,VALID,19.4132,VALID,142,VALID,0,
2012-08-27, 02:31:04,VALID,916.84,VALID,0,VALID,96.8174,VALID,0,VALID,19.3742,VALID,142,VALID,0,
2012-08-27, 02:32:04,VALID,916.808,VALID,0,VALID,96.8403,VALID,0,VALID,19.3742,VALID,142,VALID,0,
2012-08-27, 02:33:04,VALID,916.791,VALID,0,VALID,96.8555,VALID,0,VALID,19.3547,VALID,142,VALID,0,
2012-08-27, 02:34:04,VALID,916.789,VALID,0,VALID,96.8479,VALID,0,VALID,19.3352,VALID,142,VALID,0,
2012-08-27, 02:35:04,VALID,916.765,VALID,0,VALID,96.8021,VALID,0,VALID,19.3157,VALID,142,VALID,0,
2012-08-27, 02:36:04,VALID,916.75,VALID,0,VALID,96.6725,VALID,0,VALID,19.2168,VALID,142,VALID,0,
2012-08-27, 02:37:04,VALID,916.748,VALID,0,VALID,96.6725,VALID,0,VALID,19.1987,VALID,142,VALID,0,
2012-08-27, 02:38:04,VALID,916.768,VALID,0,VALID,96.7259,VALID,0,VALID,19.1597,VALID,142,VALID,0,
2012-08-27, 02:39:04,VALID,916.736,VALID,0,VALID,96.7869,VALID,0,VALID,19.1388,VALID,142,VALID,0,
2012-08-27, 02:40:04,VALID,916.751,VALID,0,VALID,96.8326,VALID,0,VALID,19.1402,VALID,142,VALID,0,
2012-08-27, 02:41:04,VALID,916.703,VALID,0,VALID,96.8403,VALID,0,VALID,19.1388,VALID,142,VALID,0,
2012-08-27, 02:42:04,VALID,916.74,VALID,0,VALID,96.8631,VALID,0,VALID,19.1792,VALID,142,VALID,0,
2012-08-27, 02:43:04,VALID,916.721,VALID,0,VALID,96.9165,VALID,0,VALID,19.2182,VALID,142,VALID,0,
2012-08-27, 02:44:04,VALID,916.721,VALID,0,VALID,96.9241,VALID,0,VALID,19.2377,VALID,142,VALID,0,
2012-08-27, 02:45:04,VALID,916.702,VALID,0,VALID,96.9394,VALID,0,VALID,19.2363,VALID,142,VALID,0,
2012-08-27, 02:46:04,VALID,916.685,VALID,0,VALID,96.9546,VALID,0,VALID,19.2767,VALID,142,VALID,0,
2012-08-27, 02:47:04,VALID,916.675,VALID,0,VALID,96.947,VALID,0,VALID,19.2962,VALID,142,VALID,0,
2012-08-27, 02:48:04,VALID,916.641,VALID,0,VALID,96.9546,VALID,0,VALID,19.3157,VALID,142,VALID,0,
2012-08-27, 02:49:04,VALID,916.658,VALID,0,VALID,96.9698,VALID,0,VALID,19.2948,VALID,142,VALID,0,
2012-08-27, 02:50:04,VALID,916.645,VALID,0,VALID,96.8936,VALID,0,VALID,19.2572,VALID,142,VALID,0,
2012-08-27, 02:51:04,VALID,916.641,VALID,0,VALID,96.8555,VALID,0,VALID,19.2572,VALID,142,VALID,0,
2012-08-27, 02:52:04,VALID,916.658,VALID,0,VALID,96.9012,VALID,0,VALID,19.2377,VALID,142,VALID,0,
2012-08-27, 02:53:04,VALID,916.661,VALID,0,VALID,96.9241,VALID,0,VALID,19.2363,VALID,142,VALID,0,
2012-08-27, 02:54:04,VALID,916.661,VALID,0,VALID,96.9165,VALID,0,VALID,19.2363,VALID,142,VALID,0,
2012-08-27, 02:55:04,VALID,916.655,VALID,0,VALID,96.9394,VALID,0,VALID,19.2558,VALID,142,VALID,0,
2012-08-27, 02:56:04,VALID,916.663,VALID,0,VALID,96.9546,VALID,0,VALID,19.3157,VALID,142,VALID,0,
2012-08-27, 02:57:04,VALID,916.683,VALID,0,VALID,96.9775,VALID,0,VALID,19.3157,VALID,142,VALID,0,
2012-08-27, 02:58:04,VALID,916.696,VALID,0,VALID,96.9622,VALID,0,VALID,19.3352,VALID,142,VALID,0,
2012-08-27, 02:59:04,VALID,916.713,VALID,0,VALID,96.9394,VALID,0,VALID,19.3338,VALID,142,VALID,0,
2012-08-27, 03:00:04,VALID,916.748,VALID,0,VALID,96.9622,VALID,0,VALID,19.3742,VALID,142,VALID,0,
2012-08-27, 03:01:04,VALID,916.749,VALID,0,VALID,96.9317,VALID,0,VALID,19.3742,VALID,142,VALID,0,
2012-08-27, 03:02:04,VALID,916.776,VALID,0,VALID,96.9394,VALID,0.107441,VALID,19.3533,VALID,142,VALID,0,
2012-08-27, 03:03:04,VALID,916.754,VALID,0,VALID,96.9241,VALID,0,VALID,19.3728,VALID,142,VALID,0,
2012-08-27, 03:04:04,VALID,916.78,VALID,0,VALID,96.9546,VALID,0.107441,VALID,19.4327,VALID,141,VALID,0,
2012-08-27, 03:05:04,VALID,916.762,VALID,0,VALID,96.947,VALID,0.107441,VALID,19.4118,VALID,142,VALID,0,
2012-08-27, 03:06:04,VALID,916.757,VALID,0,VALID,96.9546,VALID,0,VALID,19.4523,VALID,142,VALID,0,
2012-08-27, 03:07:04,VALID,916.795,VALID,0,VALID,96.9394,VALID,0,VALID,19.4913,VALID,141,VALID,0,
2012-08-27, 03:08:04,VALID,916.77,VALID,0,VALID,96.9622,VALID,0,VALID,19.5108,VALID,142,VALID,0,
2012-08-27, 03:09:04,VALID,916.771,VALID,0,VALID,96.9698,VALID,0,VALID,19.5303,VALID,142,VALID,0,
2012-08-27, 03:10:04,VALID,916.717,VALID,0,VALID,96.9622,VALID,0,VALID,19.5483,VALID,142,VALID,0,
2012-08-27, 03:11:04,VALID,916.701,VALID,0,VALID,96.9546,VALID,0,VALID,19.5693,VALID,142,VALID,0,
2012-08-27, 03:12:04,VALID,916.681,VALID,0,VALID,96.947,VALID,0,VALID,19.6083,VALID,142,VALID,0,
2012-08-27, 03:13:04,VALID,916.674,VALID,0,VALID,96.9394,VALID,0,VALID,19.6083,VALID,142,VALID,0,
2012-08-27, 03:14:04,VALID,916.672,VALID,0,VALID,96.9165,VALID,0,VALID,19.6083,VALID,142,VALID,0,
2012-08-27, 03:15:04,VALID,916.688,VALID,0,VALID,96.9012,VALID,0,VALID,19.6068,VALID,142,VALID,0,
2012-08-27, 03:16:04,VALID,916.701,VALID,0,VALID,96.8936,VALID,0,VALID,19.6263,VALID,142,VALID,0,
2012-08-27, 03:17:04,VALID,916.73,VALID,0,VALID,96.8555,VALID,0,VALID,19.6068,VALID,142,VALID,0,
2012-08-27, 03:18:04,VALID,916.736,VALID,0,VALID,96.8403,VALID,0,VALID,19.5873,VALID,142,VALID,0,
2012-08-27, 03:19:04,VALID,916.733,VALID,0,VALID,96.825,VALID,0,VALID,19.6278,VALID,142,VALID,0,
2012-08-27, 03:20:04,VALID,916.721,VALID,0,VALID,96.825,VALID,0,VALID,19.6278,VALID,142,VALID,0,
2012-08-27, 03:21:04,VALID,916.667,VALID,0,VALID,96.8174,VALID,0,VALID,19.6068,VALID,142,VALID,0,
2012-08-27, 03:22:04,VALID,916.649,VALID,0,VALID,96.8326,VALID,0,VALID,19.6053,VALID,142,VALID,0,
2012-08-27, 03:23:04,VALID,916.64,VALID,0,VALID,96.8326,VALID,0,VALID,19.6473,VALID,142,VALID,0,
2012-08-27, 03:24:04,VALID,916.64,VALID,0,VALID,96.8021,VALID,0,VALID,19.6458,VALID,142,VALID,0,
2012-08-27, 03:25:04,VALID,916.665,VALID,0,VALID,96.8098,VALID,0.107441,VALID,19.6863,VALID,142,VALID,0,
2012-08-27, 03:26:04,VALID,916.636,VALID,0,VALID,96.7945,VALID,0,VALID,19.6458,VALID,142,VALID,0,
2012-08-27, 03:27:04,VALID,916.665,VALID,0,VALID,96.7716,VALID,0,VALID,19.6653,VALID,142,VALID,0,
2012-08-27, 03:28:04,VALID,916.625,VALID,0,VALID,96.7945,VALID,0,VALID,19.7043,VALID,142,VALID,0,
2012-08-27, 03:29:04,VALID,916.618,VALID,0,VALID,96.7793,VALID,0,VALID,19.7043,VALID,142,VALID,0,
2012-08-27, 03:30:04,VALID,916.579,VALID,0,VALID,96.6802,VALID,0,VALID,19.7058,VALID,142,VALID,0,
2012-08-27, 03:31:04,VALID,916.559,VALID,0,VALID,96.6497,VALID,0,VALID,19.6848,VALID,142,VALID,0,
2012-08-27, 03:32:04,VALID,916.552,VALID,0,VALID,96.6344,VALID,0,VALID,19.6863,VALID,142,VALID,0,
2012-08-27, 03:33:04,VALID,916.548,VALID,0,VALID,96.5811,VALID,0,VALID,19.6653,VALID,142,VALID,0,
2012-08-27, 03:34:04,VALID,916.517,VALID,0,VALID,96.5887,VALID,0,VALID,19.6458,VALID,142,VALID,0,
2012-08-27, 03:35:04,VALID,916.537,VALID,0,VALID,96.5963,VALID,0.107441,VALID,19.6263,VALID,142,VALID,0,
2012-08-27, 03:36:04,VALID,916.519,VALID,0,VALID,96.6039,VALID,0,VALID,19.6668,VALID,142,VALID,0,
2012-08-27, 03:37:04,VALID,916.499,VALID,0,VALID,96.5963,VALID,0,VALID,19.6458,VALID,142,VALID,0,
2012-08-27, 03:38:04,VALID,916.488,VALID,0,VALID,96.6039,VALID,0,VALID,19.6653,VALID,142,VALID,0,
2012-08-27, 03:39:04,VALID,916.483,VALID,0,VALID,96.6192,VALID,0,VALID,19.6458,VALID,142,VALID,0,
2012-08-27, 03:40:04,VALID,916.489,VALID,0,VALID,96.5963,VALID,0,VALID,19.6653,VALID,142,VALID,0,
2012-08-27, 03:41:04,VALID,916.477,VALID,0,VALID,96.5506,VALID,0,VALID,19.6653,VALID,142,VALID,0,
2012-08-27, 03:42:04,VALID,916.487,VALID,0,VALID,96.5582,VALID,0.107441,VALID,19.6653,VALID,142,VALID,0,
2012-08-27, 03:43:04,VALID,916.459,VALID,0,VALID,96.5429,VALID,0.107441,VALID,19.6653,VALID,142,VALID,0,
2012-08-27, 03:44:04,VALID,916.485,VALID,0,VALID,96.4972,VALID,0,VALID,19.6848,VALID,142,VALID,0,
2012-08-27, 03:45:04,VALID,916.481,VALID,0,VALID,96.4896,VALID,0,VALID,19.6863,VALID,142,VALID,0,
2012-08-27, 03:46:04,VALID,916.46,VALID,0,VALID,96.4591,VALID,0,VALID,19.6653,VALID,142,VALID,0,
2012-08-27, 03:47:04,VALID,916.48,VALID,0,VALID,96.4667,VALID,0,VALID,19.6668,VALID,142,VALID,0,
2012-08-27, 03:48:04,VALID,916.45,VALID,0,VALID,96.4591,VALID,0,VALID,19.6473,VALID,142,VALID,0,
2012-08-27, 03:49:04,VALID,916.474,VALID,0,VALID,96.4591,VALID,0,VALID,19.6263,VALID,142,VALID,0,
2012-08-27, 03:50:04,VALID,916.452,VALID,0,VALID,96.4819,VALID,0,VALID,19.6068,VALID,142,VALID,0,
2012-08-27, 03:51:04,VALID,916.442,VALID,0,VALID,96.4667,VALID,0,VALID,19.6068,VALID,142,VALID,0,
2012-08-27, 03:52:04,VALID,916.387,VALID,0,VALID,96.4972,VALID,0,VALID,19.5873,VALID,142,VALID,0,
2012-08-27, 03:53:04,VALID,916.402,VALID,0,VALID,96.5124,VALID,0,VALID,19.5873,VALID,142,VALID,0,
2012-08-27, 03:54:04,VALID,916.393,VALID,0,VALID,96.5048,VALID,0,VALID,19.5873,VALID,142,VALID,0,
2012-08-27, 03:55:04,VALID,916.358,VALID,0,VALID,96.5048,VALID,0,VALID,19.5873,VALID,142,VALID,0,
2012-08-27, 03:56:04,VALID,916.344,VALID,0,VALID,96.5201,VALID,0,VALID,19.5678,VALID,142,VALID,0,
2012-08-27, 03:57:04,VALID,916.357,VALID,0,VALID,96.5429,VALID,0,VALID,19.5873,VALID,142,VALID,0,
2012-08-27, 03:58:04,VALID,916.363,VALID,0,VALID,96.5658,VALID,0,VALID,19.6068,VALID,142,VALID,0,
2012-08-27, 03:59:04,VALID,916.4,VALID,0,VALID,96.5353,VALID,0,VALID,19.6278,VALID,142,VALID,0,